Louisville Bowman, KY

6:22 AM EDT on August 26, 2019 (GMT -0400)
Bowman

Weather History for KLOU - May, 2019

Change the Weather History Date:

Wednesday, May 15, 2019

  Actual Average Record
Temperature  
Mean Temperature 60 °F 66 °F  
Max Temperature 70 °F 76 °F 90 °F (1991)
Min Temperature 49 °F 56 °F 40 °F (1973)
Degree Days  
Heating Degree Days 5 2  
Month to date heating degree days 47 51  
Since 1 July heating degree days 4101 4242  
Cooling Degree Days 0 3  
Month to date cooling degree days 30 34  
Year to date cooling degree days 47 68  
Growing Degree Days 10 (Base 50)    
Moisture  
Dew Point 48 °F    
Average Humidity 64    
Maximum Humidity 83    
Minimum Humidity 44    
Precipitation  
Precipitation 0.00 in 0.17 in 1.98 in (1983)
Month to date precipitation 2.15 2.66  
Year to date precipitation 25.56 17.46  
Sea Level Pressure  
Sea Level Pressure 30.01 in    
Wind  
Wind Speed 3 mph (SSE)    
Max Wind Speed 13 mph    
Max Gust Speed 17 mph    
Visibility 10 miles    
Events      
T = Trace of Precipitation, MM = Missing Value Source: NWS Daily Summary

Daily Weather History Graph

Daily Weather History Graph

Search for Another Location

Airport or City:

Astronomy

May. 15, 2019 Rise Set
Actual Time 6:31 AM EDT 8:46 PM EDT
Civil Twilight 6:02 AM EDT 9:16 PM EDT
Nautical Twilight 5:25 AM EDT 9:52 PM EDT
Astronomical Twilight 4:46 AM EDT 10:32 PM EDT
Moon 5:20 PM EDT (5/15) 4:52 AM EDT (5/15)
Length of Visible Light 15h 13m
Length of Day
14h 14m
Waxing Gibbous, 87% of the Moon is Illuminated
May 15
Waxing Gibbous
May 18
Full
May 26
Last Quarter
Jun 3
New
Jun 10
First Quarter

Hourly Weather History & Observations

Time (EDT) Temp. Dew Point Humidity Pressure Visibility Wind Dir Wind Speed Gust Speed Precip Events Conditions
12:53 AM 53.1 °F 46.0 °F 77% 30.03 in 10.0 mi Calm Calm - N/A   Clear
1:53 AM 52.0 °F 46.0 °F 80% 30.02 in 10.0 mi Calm Calm - N/A   Clear
2:53 AM 50.0 °F 45.0 °F 83% 30.02 in 10.0 mi Calm Calm - N/A   Clear
3:53 AM 51.1 °F 46.0 °F 83% 30.00 in 10.0 mi Calm Calm - N/A   Mostly Cloudy
4:53 AM 50.0 °F 45.0 °F 83% 30.01 in 10.0 mi Calm Calm - N/A   Clear
5:53 AM 50.0 °F 45.0 °F 83% 30.00 in 10.0 mi Calm Calm - N/A   Clear
6:53 AM 53.1 °F 46.0 °F 77% 30.01 in 10.0 mi SSE 3.5 mph - N/A   Mostly Cloudy
7:53 AM 55.9 °F 46.0 °F 69% 30.03 in 10.0 mi Calm Calm - N/A   Overcast
8:53 AM 59.0 °F 48.0 °F 67% 30.03 in 10.0 mi SSE 3.5 mph - N/A   Mostly Cloudy
9:53 AM 62.1 °F 48.0 °F 60% 30.04 in 10.0 mi South 3.5 mph - N/A   Overcast
10:53 AM 63.0 °F 48.0 °F 58% 30.04 in 10.0 mi South 4.6 mph - N/A   Overcast
11:53 AM 63.0 °F 48.9 °F 60% 30.05 in 10.0 mi South 4.6 mph - N/A   Overcast
12:53 PM 64.0 °F 48.9 °F 58% 30.04 in 10.0 mi SSW 9.2 mph - N/A   Overcast
1:53 PM 66.0 °F 46.9 °F 50% 30.02 in 10.0 mi Variable 5.8 mph - N/A   Overcast
2:53 PM 70.0 °F 48.0 °F 46% 30.01 in 10.0 mi South 9.2 mph - N/A   Mostly Cloudy
3:53 PM 69.1 °F 46.0 °F 44% 29.99 in 10.0 mi South 10.4 mph - N/A   Overcast
4:53 PM 69.1 °F 48.0 °F 47% 29.99 in 10.0 mi SE 5.8 mph - N/A   Overcast
5:53 PM 69.1 °F 50.0 °F 51% 29.99 in 10.0 mi SSE 6.9 mph - N/A   Overcast
6:53 PM 70.0 °F 50.0 °F 49% 29.97 in 10.0 mi SE 4.6 mph - N/A   Clear
7:53 PM 68.0 °F 51.1 °F 55% 29.97 in 10.0 mi SE 3.5 mph - N/A   Scattered Clouds
8:53 PM 66.9 °F 51.1 °F 57% 29.98 in 10.0 mi SE 4.6 mph - N/A   Overcast
9:53 PM 63.0 °F 51.1 °F 65% 29.98 in 10.0 mi Calm Calm - N/A   Partly Cloudy
10:53 PM 59.0 °F 51.1 °F 75% 30.00 in 10.0 mi Calm Calm - N/A   Clear
11:53 PM 57.0 °F 51.1 °F 81% 30.00 in 10.0 mi Calm Calm - N/A   Clear